User: anonymous   Login
Location: Unspecified
(0.0000°N, 0.0000°E)
Time: 21:32:58
(UTC+00:00)
Language:

ATS 6 - Orbit

View from above orbital plane
View from above orbital plane
View from above satellite
View from above satellite

Ground track
Ground track

The orbit data is extracted from the following two-line orbital elements,

1  7318U 74039A   18047.94411137 -.00000244 +00000-0 +00000-0 0  9993
2  7318 009.1346 304.9707 0026573 237.2637 016.8291 01.01981685090978
Epoch (UTC): 16 February 2018 22:39:31
Eccentricity: 0.0026573
inclination: 9.1346°
perigee height: 35203 km
apogee height: 35424 km
right ascension of ascending node: 304.9707°
argument of perigee: 237.2637°
revolutions per day: 1.01981685
mean anomaly at epoch: 16.8291°
orbit number at epoch: 9097

The dashed part of the orbit path shows where the satellite is in the earth's shadow,  

DLR